Weather History for KAQW - February, 2014

Change the Weather History Date:

Wednesday, February 26, 2014

  Actual Average Record
Temperature  
Mean Temperature 13 °F -  
Max Temperature 21 °F 35 °F 50 °F (1997)
Min Temperature 5 °F 17 °F -7 °F (2003)
Degree Days  
Heating Degree Days 52    
Moisture  
Dew Point 0 °F    
Average Humidity 57    
Maximum Humidity 80    
Minimum Humidity 27    
Precipitation  
Precipitation 0.00 in - - ()
Sea Level Pressure  
Sea Level Pressure 29.86 in    
Wind  
Wind Speed 5 mph (West)    
Max Wind Speed 18 mph    
Max Gust Speed 31 mph    
Visibility 8 miles    
Events Snow    
Averages and records for this station are not official NWS values.
T = Trace of Precipitation, MM = Missing Value Source: NWS Daily Summary

Daily Weather History Graph

Daily Weather History Graph

Search for Another Location

Airport or City:

Trip Planner

Search our weather history database for the weather conditions in past years. The results will help you decide how hot, cold, wet, or windy it might be!

Date:

Astronomy

Feb. 26, 2014 Rise Set
Actual Time 6:33 AM EST 5:38 PM EST
Civil Twilight 6:04 AM EST 6:06 PM EST
Nautical Twilight 5:32 AM EST 6:39 PM EST
Astronomical Twilight 4:59 AM EST 7:12 PM EST
Moon 4:20 AM EST 2:47 PM EST
Length of Visible Light 12h 02m
Length of Day
11h 05m
Waning Crescent, 10% of the Moon is Illuminated
Feb 26
Waning Crescent
Mar 1
New
Mar 8
First Quarter
Mar 16
Full
Mar 23
Last Quarter

Hourly Weather History & Observations

Time (EST) Temp. Windchill Dew Point Humidity Pressure Visibility Wind Dir Wind Speed Gust Speed Precip Events Conditions
12:52 AM 14.0 °F 8.2 °F 3.0 °F 62% 29.93 in 10.0 mi WNW 3.5 mph - N/A   Clear
1:52 AM 10.9 °F 4.7 °F 3.0 °F 70% 29.92 in 10.0 mi WNW 3.5 mph - N/A   Mostly Cloudy
2:52 AM 10.9 °F - 3.9 °F 73% 29.91 in 10.0 mi Calm Calm - N/A   Overcast
3:52 AM 14.0 °F - 6.1 °F 71% 29.88 in 10.0 mi Calm Calm - N/A   Overcast
4:52 AM 14.0 °F - 8.1 °F 77% 29.87 in 10.0 mi Calm Calm - 0.00 in   Overcast
5:52 AM 12.0 °F 2.7 °F 6.1 °F 77% 29.86 in 10.0 mi SE 5.8 mph - N/A   Partly Cloudy
6:52 AM 12.0 °F 2.7 °F 5.0 °F 73% 29.85 in 10.0 mi East 5.8 mph - N/A   Clear
7:52 AM 12.9 °F 5.2 °F 5.0 °F 71% 29.85 in 10.0 mi ESE 4.6 mph - N/A   Overcast
8:40 AM 14.0 °F 5.1 °F 6.1 °F 71% 29.82 in 1.8 mi ESE 5.8 mph - 0.00 in Snow Light Snow
8:45 AM 14.0 °F 8.2 °F 7.0 °F 74% 29.82 in 0.8 mi East 3.5 mph - 0.00 in Snow Light Snow
8:52 AM 14.0 °F - 8.1 °F 77% 29.86 in 0.8 mi Calm Calm - 0.00 in Snow Light Snow
8:59 AM 15.1 °F - 9.0 °F 77% 29.82 in 1.2 mi Calm Calm - 0.00 in Snow Light Snow
9:13 AM 15.1 °F - 10.0 °F 80% 29.81 in 2.0 mi Calm Calm - 0.00 in Snow Light Snow
9:23 AM 15.1 °F - 10.0 °F 80% 29.82 in 4.0 mi Calm Calm - 0.00 in Snow Light Snow
9:31 AM 15.1 °F - 10.0 °F 80% 29.82 in 6.0 mi Calm Calm - 0.00 in   Haze
9:52 AM 18.0 °F 8.7 °F 9.0 °F 68% 29.86 in 10.0 mi WNW 6.9 mph - 0.00 in   Overcast
10:52 AM 21.0 °F 8.1 °F 1.0 °F 42% 29.84 in 10.0 mi West 13.8 mph 29.9 mph N/A   Mostly Cloudy
11:52 AM 21.9 °F 9.8 °F -2.9 °F 34% 29.84 in 10.0 mi West 12.7 mph 26.5 mph N/A   Overcast
12:52 PM 19.9 °F 6.2 °F -0.9 °F 40% 29.84 in 10.0 mi West 15.0 mph 24.2 mph N/A   Overcast
1:52 PM 19.9 °F 4.8 °F -9.0 °F 27% 29.83 in 10.0 mi WNW 18.4 mph 31.1 mph N/A   Partly Cloudy
2:52 PM 19.0 °F 4.0 °F -9.9 °F 27% 29.84 in 10.0 mi West 17.3 mph 28.8 mph N/A   Partly Cloudy
3:52 PM 18.0 °F 4.2 °F -9.0 °F 30% 29.86 in 10.0 mi West 13.8 mph 23.0 mph N/A   Scattered Clouds
4:52 PM 16.0 °F 3.6 °F -9.9 °F 31% 29.87 in 10.0 mi West 10.4 mph - N/A   Partly Cloudy
5:52 PM 12.9 °F 0.7 °F -11.9 °F 32% 29.88 in 10.0 mi WNW 9.2 mph - N/A   Clear
6:52 PM 12.0 °F 1.5 °F -11.9 °F 34% 29.89 in 10.0 mi WNW 6.9 mph - N/A   Clear
7:52 PM 10.9 °F -2.6 °F -9.9 °F 39% 29.88 in 10.0 mi West 10.4 mph - N/A   Clear
8:52 PM 10.0 °F -1.9 °F -11.0 °F 38% 29.87 in 10.0 mi West 8.1 mph - N/A   Clear
9:52 PM 7.0 °F - -8.0 °F 51% 29.88 in 10.0 mi Calm Calm - N/A   Clear
10:52 PM 5.0 °F - -8.0 °F 55% 29.86 in 10.0 mi Calm Calm - N/A   Clear
11:52 PM 7.0 °F - -2.9 °F 64% 29.87 in 10.0 mi Calm Calm - N/A   Mostly Cloudy